Location: Austin
(30.3000°N, 97.7500°W)
Time: 01:00:05
(UTC-06:00)

ARIANE 5 R/B - Pass Details

Date: 04 November 2025
Orbit: 746 x 793 km, 98.8° (Epoch: 15 November)

Event Time Altitude Azimuth Distance (km) Brightness Sun altitude
Rises 18:22:04 0° 171° (S) 3,202 5.8 -9.4°
Reaches altitude 10° 18:24:22 10° 173° (S) 2,274 5.0 -9.9°
Maximum altitude 18:29:21 71° 258° (WSW) 792 2.8 -11.0°
Drops below altitude 10° 18:34:19 10° 342° (NNW) 2,267 5.0 -12.0°
Sets 18:36:37 0° 345° (NNW) 3,192 5.8 -12.5°
